Theta_e
318 316 314 313 313 312 311 312 311 312 312 313 312 312 314 315 316 318 321 323 324 326 326 327 327 327 328 328 328 327 327 327 327 328 328 329 329 328 329 329 329 328 328 327 327 327 326 326 326 326 325 325 323 323 322 323 323 322 321 321 321 321
315 314 312 311 310 310 311 311 311 310 310 310 310 311 312 313 314 316 317 321 323 324 326 327 327 328 328 328 327 327 326 327 327 328 327 328 328 328 329 328 328 328 327 327 327 326 326 326 325 325 325 325 323 322 322 322 322 320 319 320 320 320
313 312 311 311 311 311 311 310 309 309 309 309 310 310 310 311 313 314 316 319 321 322 324 326 327 327 328 327 328 327 327 327 327 327 328 328 328 328 328 328 327 327 327 327 325 325 325 325 325 325 324 323 323 322 322 321 321 319 319 319 319 319
312 311 311 311 310 311 312 313 311 310 309 309 309 310 310 310 312 313 315 319 321 322 323 324 326 327 327 327 327 326 326 327 327 327 328 327 327 328 327 327 327 327 327 325 325 325 324 324 324 324 324 323 322 321 322 321 319 318 317 317 316 317
312 312 310 310 310 312 313 313 313 312 310 309 309 309 309 310 312 314 315 316 318 320 322 323 324 325 326 326 326 326 326 327 327 327 326 326 326 327 327 326 327 327 326 325 324 324 324 324 324 324 324 323 322 321 321 321 319 317 316 315 315 315
313 312 313 312 312 311 312 314 312 311 310 310 309 308 309 309 310 312 315 316 318 319 320 322 323 324 324 325 326 326 326 326 326 326 326 326 326 325 326 326 326 326 326 324 323 323 323 323 323 323 323 323 322 321 321 320 319 318 317 316 316 316
313 314 312 312 312 312 313 313 313 311 310 310 310 309 309 309 309 311 314 316 317 318 319 320 321 322 323 323 325 325 325 325 325 325 325 325 325 325 325 325 326 326 325 324 323 323 322 323 323 323 323 323 322 321 321 320 319 318 317 317 316 310
313 312 312 314 313 312 313 313 313 311 310 311 311 309 309 308 309 309 311 314 315 316 317 318 320 321 322 323 324 324 325 325 325 324 325 325 324 324 324 325 325 325 324 324 324 323 322 322 323 323 322 322 321 321 320 320 318 317 317 317 316 316
311 311 314 313 311 312 313 312 312 311 311 311 311 310 308 308 307 307 308 310 312 314 316 317 318 320 321 322 322 324 324 324 324 324 323 324 324 324 323 324 324 323 323 323 323 323 322 322 321 321 321 320 320 319 318 318 318 317 317 317 317 317
311 312 312 311 312 314 313 312 312 310 310 309 310 309 309 309 306 305 306 307 308 311 313 315 317 319 320 321 322 322 322 323 323 323 323 323 323 323 323 323 322 322 320 321 321 322 322 321 320 320 320 319 319 318 317 317 316 316 316 316 317 316
311 311 310 310 312 313 312 312 311 311 311 310 309 309 308 308 306 305 305 305 306 308 310 313 315 317 318 319 319 320 320 321 321 322 322 322 322 321 321 322 321 320 319 318 319 319 319 319 319 320 319 318 318 319 317 317 316 315 315 315 314 315
309 309 309 310 313 313 312 312 312 311 311 311 311 310 310 307 306 305 304 304 305 306 308 310 312 313 314 314 314 315 316 317 318 318 319 319 320 319 316 317 318 318 318 317 317 317 318 318 319 309 306 307 316 318 318 317 316 315 315 313 312 310
308 309 309 311 312 312 312 312 312 312 312 311 310 309 309 307 305 305 304 304 305 306 306 307 308 309 310 310 311 311 310 312 311 311 311 312 313 314 313 312 314 314 316 316 316 315 316 317 316 305 306 305 306 314 317 316 315 315 314 313 312 310
307 308 310 311 311 311 310 311 311 310 309 309 308 308 310 307 305 304 304 304 305 305 306 306 306 306 307 307 307 308 306 304 304 305 306 306 305 306 303 305 310 312 313 313 314 314 314 315 305 305 304 304 304 304 313 316 315 314 313 312 312 311
307 309 310 310 310 309 311 311 308 307 308 307 307 307 307 305 304 303 303 303 304 304 304 304 304 304 304 305 304 303 301 300 300 300 301 301 302 298 301 305 305 307 308 310 311 311 312 312 305 304 304 303 303 303 306 315 315 313 312 311 309 306
309 309 309 309 309 311 310 309 308 307 307 307 306 305 304 304 304 304 303 303 303 303 303 303 303 303 303 302 301 299 298 298 298 299 299 299 299 299 300 300 301 302 303 306 308 309 309 308 303 302 302 302 301 302 302 311 313 312 311 308 306 305
308 308 308 309 309 308 308 307 307 307 307 306 305 305 305 304 304 303 303 303 303 303 303 303 302 302 301 300 300 299 297 296 297 297 298 297 298 298 299 299 299 300 300 301 302 303 305 307 300 300 300 300 300 301 301 308 309 309 307 306 303 302
308 308 307 308 307 306 305 305 305 305 304 304 303 302 303 303 303 303 303 303 303 303 303 302 302 301 300 299 298 296 296 295 295 295 296 296 296 297 298 298 299 299 299 299 299 299 301 302 299 298 298 299 300 300 302 304 306 305 302 300 299 299
307 306 306 305 304 304 304 304 304 303 302 301 301 301 300 301 301 301 302 301 303 303 303 303 301 300 300 298 297 296 295 294 294 294 294 294 294 295 295 297 297 298 298 297 297 298 299 300 297 296 297 297 298 299 301 301 300 299 298 298 296 296
303 302 302 301 302 304 304 302 301 300 299 299 299 299 299 300 300 301 301 301 302 302 302 302 301 300 298 298 296 295 295 295 293 293 293 294 294 294 295 295 296 296 296 296 296 297 298 298 295 295 296 296 297 297 299 298 298 296 296 294 293 293
300 300 300 302 301 301 301 300 299 299 298 298 299 299 298 299 300 301 301 301 302 301 300 300 300 299 299 297 296 296 294 293 292 292 292 294 295 295 296 294 296 295 295 295 295 291 295 297 295 294 295 295 296 295 297 297 296 296 295 294 293 291
300 299 299 299 299 300 299 298 298 296 297 297 298 298 298 299 300 301 301 300 300 300 300 299 298 298 297 296 296 295 294 292 291 291 292 294 295 295 295 295 295 294 293 293 292 292 294 295 295 295 294 295 295 295 296 296 296 295 294 293 293 291
299 298 298 299 299 298 297 297 296 295 295 295 296 296 298 299 299 299 298 299 299 299 299 299 298 298 296 295 294 293 292 292 292 291 291 291 292 293 293 293 293 293 293 293 292 292 292 293 294 293 292 293 294 295 295 295 296 296 295 293 292 292
296 296 296 297 297 297 296 296 294 293 294 294 294 296 297 297 297 296 296 296 297 297 297 297 297 294 294 292 291 291 291 292 291 291 291 292 292 291 291 291 291 292 293 293 292 291 292 290 290 294 291 292 293 294 295 295 295 295 294 293 292 292
294 295 295 296 295 296 295 292 291 292 292 292 293 295 296 295 294 294 294 294 293 292 292 292 292 291 292 291 291 290 290 291 290 289 290 290 290 290 290 290 290 291 292 292 294 292 291 292 290 289 291 290 292 293 294 295 295 295 294 294 292 292
293 293 293 294 294 294 293 292 291 291 289 291 294 294 293 292 292 291 290 289 290 290 290 290 290 290 290 290 290 290 289 289 290 290 290 290 290 291 291 291 291 291 291 292 293 293 294 291 291 289 288 289 290 293 294 294 295 294 293 294 295 295
292 292 291 292 292 292 292 292 291 289 288 291 293 292 291 290 288 287 287 287 288 288 289 289 289 289 289 289 290 289 290 289 288 290 290 290 290 291 291 291 291 292 292 292 292 294 293 292 291 291 289 288 289 291 293 293 294 294 293 293 293 294
290 289 289 290 290 291 290 290 289 288 290 291 291 290 289 287 286 286 286 286 287 288 288 288 288 288 288 288 290 290 290 290 290 290 290 290 290 290 291 291 291 292 291 291 292 292 293 292 291 291 290 288 287 288 290 292 292 291 290 291 292 290
289 288 288 288 290 290 290 289 289 289 290 289 289 288 286 285 285 285 286 286 287 287 288 288 289 290 290 289 289 290 290 291 290 290 290 290 290 290 290 291 291 291 291 290 291 291 291 291 292 291 290 290 289 289 289 290 290 289 289 290 289 288
288 288 288 288 289 290 289 288 288 288 288 288 287 286 285 285 285 285 285 285 286 287 288 288 288 289 290 290 289 290 290 290 290 290 290 290 290 290 290 290 290 290 291 291 291 291 291 291 291 290 290 290 290 290 290 289 289 289 289 289 287 287
288 288 287 288 289 289 288 288 288 288 287 287 286 286 284 284 284 284 285 286 287 287 288 289 289 289 290 290 290 290 291 290 290 290 290 290 292 292 291 291 291 291 291 291 291 291 290 290 290 290 290 290 289 289 289 289 289 289 289 288 287 285
287 287 287 288 289 288 288 288 287 288 287 286 286 285 284 284 284 284 285 286 287 288 289 289 289 289 290 289 290 290 290 289 289 290 290 290 289 289 289 290 291 292 292 291 292 292 291 291 291 291 290 290 289 289 290 290 290 290 288 287 288 286
287 287 287 287 288 288 287 287 287 287 287 286 286 285 284 284 283 284 285 285 286 287 287 287 288 289 289 289 290 289 289 290 289 288 288 289 288 288 288 288 289 290 289 290 291 290 290 290 291 290 289 289 289 289 290 290 290 290 289 288 286 286
287 287 287 288 287 287 286 286 286 286 286 285 284 284 283 283 282 282 283 284 285 285 286 287 287 288 288 289 289 289 289 289 288 289 288 287 287 287 287 287 287 288 288 289 289 289 291 289 289 290 289 289 289 289 289 289 290 289 289 288 289 287
288 288 288 287 287 286 286 286 286 286 285 283 282 282 281 281 281 282 282 283 284 284 285 286 287 287 288 288 288 288 288 288 288 287 288 288 287 287 287 287 287 287 288 288 288 288 289 289 288 288 288 288 288 288 288 289 289 289 289 289 287 287
287 287 286 286 286 285 285 284 285 284 283 281 281 281 280 280 280 281 282 282 283 283 283 284 285 286 287 288 288 288 288 288 288 288 288 288 288 287 286 286 286 286 287 287 288 288 288 288 289 288 287 287 287 288 288 288 288 289 289 288 286 287
286 285 285 284 284 284 284 284 284 283 281 279 278 278 278 278 278 279 280 281 282 283 284 285 285 286 287 287 287 288 288 288 288 288 287 287 287 287 287 287 287 286 286 287 287 287 288 288 288 288 287 287 287 287 288 288 286 285 286 286 286 286
284 284 284 284 284 284 283 283 282 280 278 277 277 277 276 277 278 278 279 280 282 283 284 285 286 286 287 287 287 288 288 288 288 287 287 287 287 287 287 287 288 288 286 285 286 286 287 287 287 287 287 287 287 287 288 285 283 283 283 284 285 285
Wind_Speed
4 2 3 4 5 6 7 7 6 6 7 8 9 11 11 11 9 11 11 12 10 9 12 13 14 13 13 12 12 12 12 13 12 12 12 10 10 10 10 11 11 10 11 12 11 11 12 12 12 12 11 12 11 11 11 11 11 10 11 12 11 10
5 4 5 6 6 7 6 6 5 7 8 8 9 10 10 10 11 10 11 11 11 10 11 12 12 12 12 12 11 12 13 13 12 12 12 12 9 10 11 11 11 11 11 11 12 12 12 12 12 12 12 12 11 11 11 11 12 11 11 11 10 9
6 5 5 5 5 6 5 4 6 7 7 8 9 10 10 10 10 9 10 9 10 11 12 11 10 12 11 12 12 12 12 12 11 11 11 9 10 10 11 11 12 12 11 11 11 13 13 13 12 12 12 12 12 12 12 11 12 12 10 10 11 10
6 6 5 3 4 5 5 4 4 5 6 6 7 8 8 9 9 9 10 9 8 10 10 11 10 10 10 11 12 12 12 12 12 11 10 11 11 11 11 12 10 11 12 12 12 12 13 13 13 13 12 13 13 14 11 11 12 12 11 10 11 11
4 6 6 6 6 6 5 4 4 5 5 5 6 7 8 8 8 8 8 9 10 11 10 10 10 11 12 13 12 13 13 12 11 10 10 11 10 10 11 12 12 11 12 12 12 12 12 13 13 13 13 13 14 14 13 12 12 12 12 12 12 11
8 7 4 5 6 7 7 4 4 4 4 4 4 6 8 7 7 8 8 9 10 10 10 11 10 10 11 11 11 12 12 10 10 9 10 11 10 11 11 12 12 12 11 11 11 12 13 13 13 13 13 14 13 14 14 13 13 12 12 12 11 11
11 7 6 6 6 6 7 7 4 3 5 4 4 5 5 6 6 7 8 8 9 9 9 10 9 9 10 11 9 11 10 10 9 8 10 9 10 10 10 10 11 11 11 11 12 13 14 13 13 13 13 12 12 13 13 13 12 12 12 12 12 12
7 6 7 6 7 10 9 9 6 5 5 5 4 4 4 5 5 7 7 8 8 8 9 9 8 9 10 10 10 10 9 9 10 9 8 9 11 10 10 10 9 10 11 11 11 12 12 12 12 12 12 11 11 11 12 12 11 11 12 11 12 12
7 8 9 10 14 14 10 8 8 7 7 8 7 4 4 5 5 6 7 7 8 8 8 8 8 8 8 8 9 8 8 9 9 9 10 8 10 11 11 10 10 10 10 10 9 11 11 11 10 10 10 10 10 11 11 11 11 12 11 12 12 12
10 9 10 13 15 14 10 10 9 8 8 10 7 4 4 4 4 6 6 6 8 8 9 8 6 7 7 7 7 8 9 9 8 9 9 8 10 11 12 11 11 9 8 10 10 11 10 10 9 9 10 11 11 11 11 11 11 11 11 11 12 12
10 12 14 14 13 13 12 10 11 10 8 6 6 6 6 4 4 5 5 6 7 8 7 6 5 5 6 6 7 7 8 9 9 9 9 9 9 9 10 10 10 9 9 9 10 11 10 10 11 10 10 11 11 10 11 11 11 11 11 10 10 9
13 14 14 14 14 15 14 12 11 11 12 11 8 7 4 3 4 5 5 6 7 6 5 6 6 5 6 6 7 8 8 8 7 7 8 9 9 8 7 8 8 8 10 11 11 10 11 11 10 13 17 15 11 10 10 10 11 12 11 11 10 9
12 13 13 12 12 14 15 14 13 12 10 9 9 8 3 3 4 5 5 6 6 6 5 6 6 6 8 8 7 7 7 7 6 7 7 8 8 8 7 6 8 10 11 11 10 11 11 11 11 17 17 18 19 14 11 12 11 11 11 11 12 11
12 13 13 12 12 14 15 14 12 11 11 9 9 8 2 3 4 5 6 6 6 6 6 6 7 7 8 7 8 7 5 5 6 8 9 9 9 9 5 8 11 10 10 10 11 11 12 12 15 17 18 19 19 17 13 11 11 11 11 11 11 10
14 13 11 12 14 16 11 6 9 12 12 11 9 7 5 6 5 5 6 6 6 6 6 7 7 8 9 9 8 7 4 6 8 10 9 11 8 5 9 12 10 11 10 10 12 13 13 12 15 18 20 19 19 20 17 12 11 11 11 10 10 9
10 10 13 17 15 5 3 6 8 10 10 10 9 7 7 7 7 5 6 6 7 7 7 8 8 9 9 7 6 6 6 8 11 10 9 8 7 9 10 10 11 10 10 12 12 12 11 11 13 17 18 18 18 18 17 12 11 11 11 11 10 9
10 10 9 7 5 4 6 6 8 8 8 7 8 7 7 7 7 7 6 7 7 7 8 8 8 8 7 5 5 6 8 9 10 10 10 9 10 11 12 11 11 12 11 11 10 10 11 11 12 13 14 15 16 16 15 11 10 10 8 8 8 9
7 7 7 5 5 6 6 7 7 7 8 6 7 9 8 8 8 8 7 8 8 8 9 9 9 8 6 6 6 8 9 9 10 10 7 7 8 8 7 9 10 12 11 9 8 9 12 10 11 13 13 14 14 14 10 9 9 9 7 7 6 7
8 9 8 7 7 7 8 7 7 8 8 7 6 7 8 8 9 9 9 9 8 8 9 8 7 7 7 6 7 9 10 10 10 9 6 8 9 8 9 11 9 8 8 9 9 10 12 10 9 12 14 14 14 11 8 7 7 6 7 7 6 6
8 8 7 8 8 7 6 7 9 9 9 8 6 6 7 8 9 9 9 10 9 9 9 8 7 8 8 7 9 10 9 9 5 6 4 8 9 10 11 8 8 9 9 10 11 11 11 11 9 13 14 15 15 13 9 8 7 7 7 6 6 5
8 7 6 6 7 9 9 9 10 10 10 9 8 7 7 8 9 8 9 10 9 9 9 7 7 8 8 9 9 8 8 6 6 5 4 7 8 10 8 6 9 8 8 9 10 10 12 10 9 13 14 16 16 12 9 7 7 7 8 7 7 4
7 8 8 9 9 9 9 9 10 10 10 10 9 8 8 8 9 9 9 9 9 9 9 7 8 8 8 9 9 7 8 4 4 4 5 7 7 8 8 6 8 9 8 6 8 7 9 9 8 10 15 16 16 17 10 7 8 10 10 8 8 7
6 7 8 8 8 7 7 8 9 10 10 10 10 11 10 10 10 9 9 9 9 9 9 8 8 10 9 7 7 6 5 4 4 4 5 6 5 6 7 8 7 8 8 6 6 7 8 8 9 8 13 15 16 17 15 8 11 9 8 8 7 7
7 7 8 7 7 6 6 8 9 10 10 11 12 11 11 11 12 12 11 11 10 10 10 10 9 6 6 5 5 6 7 4 4 5 5 4 5 7 9 7 7 7 8 6 6 7 7 7 10 8 11 15 16 17 19 11 10 9 8 7 8 8
9 9 9 10 8 6 6 6 7 9 9 11 13 12 11 12 12 13 13 12 12 10 10 8 8 8 5 6 5 6 8 5 4 5 5 6 6 7 9 8 7 7 8 7 7 6 6 7 6 11 10 12 15 16 18 17 11 13 10 10 10 10
8 10 10 9 9 7 6 7 8 9 9 13 11 10 11 12 12 12 12 10 11 10 9 9 9 8 6 6 6 5 6 5 4 5 5 5 6 7 8 7 6 6 9 10 9 7 6 4 5 7 12 10 14 15 17 17 15 14 11 9 8 8
10 10 11 10 10 9 7 5 7 8 11 12 10 11 12 13 12 12 12 12 11 11 10 9 8 8 7 6 5 6 6 6 5 6 5 5 7 7 7 7 6 8 9 8 10 8 5 4 4 6 9 12 12 16 17 17 16 14 13 8 6 6
6 7 11 12 9 10 7 5 4 8 11 11 10 10 10 10 12 13 13 12 11 11 11 11 10 8 8 7 5 6 5 5 4 5 5 6 7 7 8 8 7 8 8 9 9 8 7 6 6 8 6 7 10 11 15 17 16 13 14 12 6 9
12 12 11 12 10 9 9 7 6 6 8 8 11 9 9 10 11 12 12 12 12 11 10 11 10 9 7 5 5 5 5 5 6 6 6 6 6 7 8 9 8 8 8 9 9 8 7 8 7 6 5 5 6 8 9 10 10 12 11 8 4 5
8 10 11 13 12 11 10 9 9 8 7 6 7 8 9 10 9 10 11 13 12 11 10 10 12 11 8 7 5 6 5 6 6 7 8 7 7 7 8 8 8 9 9 8 8 7 8 9 7 7 6 4 6 5 3 5 5 6 6 5 4 5
10 10 10 12 11 10 9 9 8 8 7 6 6 6 8 9 11 10 11 10 9 10 9 9 8 8 8 8 7 7 7 7 6 8 7 7 7 7 8 7 9 8 7 8 8 8 9 9 9 6 6 7 6 5 6 6 6 5 5 6 10 8
10 13 12 12 10 8 8 8 7 7 6 5 4 4 7 9 10 10 9 8 8 8 8 8 9 8 8 7 8 9 9 10 13 10 7 6 10 15 14 11 10 7 5 8 8 7 10 10 5 4 10 10 10 12 12 10 10 9 7 11 15 10
10 10 12 12 8 7 8 9 8 8 6 4 4 4 7 8 9 9 9 8 8 8 9 10 10 9 8 8 8 8 9 10 7 14 18 14 10 10 13 15 16 15 13 9 8 7 13 14 11 8 10 12 13 14 15 13 12 13 13 17 12 8
10 10 11 9 7 9 9 9 8 8 8 5 4 4 6 7 8 8 9 9 10 10 9 9 9 9 9 9 7 8 8 8 11 9 10 16 15 13 12 12 13 15 15 16 13 9 6 10 14 14 12 14 15 16 17 17 16 16 17 19 18 11
9 8 7 7 9 10 10 10 9 7 6 3 3 3 6 7 8 9 9 9 10 10 10 9 9 9 9 9 8 8 7 9 8 9 10 6 11 14 13 12 12 12 14 15 15 15 13 11 9 12 14 15 16 17 17 17 18 18 19 20 13 10
7 8 9 10 11 12 12 12 10 7 5 3 3 4 6 8 8 10 9 9 10 11 10 9 10 10 9 8 8 8 9 9 9 10 10 10 7 6 9 11 13 13 12 14 15 15 15 14 14 13 14 15 15 16 16 15 12 16 20 19 13 10
14 12 12 14 14 13 12 11 8 5 3 2 2 4 6 7 9 9 10 15 12 10 10 9 9 9 9 9 8 8 8 9 9 8 10 9 9 9 9 7 7 11 14 12 11 14 15 15 14 13 13 14 14 15 14 13 8 10 10 12 10 10
15 14 13 13 14 13 12 8 4 3 2 2 3 4 6 7 8 9 9 9 10 10 9 9 9 8 8 8 8 8 9 9 9 9 9 9 9 10 9 8 7 5 7 13 11 10 11 13 14 13 13 13 15 15 17 12 11 8 10 13 12 10
Wind_Direction
320 319 302 310 295 286 280 279 272 266 260 254 251 252 249 245 237 232 231 228 224 225 224 221 222 224 226 225 226 226 224 223 221 221 220 221 216 209 205 197 194 193 196 200 201 200 202 206 210 212 212 208 213 216 222 220 220 222 216 217 215 217
323 331 313 303 313 302 285 283 276 261 258 258 255 255 256 254 247 241 238 233 231 226 226 227 225 225 225 225 225 225 227 227 227 223 224 222 217 216 208 202 196 198 198 199 202 202 202 203 206 212 215 211 211 209 216 216 213 215 216 213 213 214
321 322 303 297 298 273 263 250 259 262 264 260 258 259 259 255 251 247 247 245 240 236 231 229 227 228 227 228 226 229 229 229 226 230 228 222 224 222 218 211 203 199 198 201 203 207 209 212 213 211 212 213 211 211 216 215 211 211 211 208 211 210
314 308 298 296 288 282 277 258 251 260 253 256 265 263 259 261 254 243 242 240 241 241 236 233 231 227 226 227 226 225 228 226 224 221 222 225 226 228 228 225 222 215 208 210 212 213 215 215 214 212 211 212 211 211 211 212 206 206 208 206 213 211
283 283 287 282 264 264 274 259 264 274 280 275 265 263 266 260 258 251 243 237 233 234 236 236 231 226 224 223 222 223 221 223 222 220 224 228 228 229 232 231 231 223 212 212 214 214 218 218 216 213 213 213 210 207 208 207 203 204 206 209 213 213
296 279 287 300 302 300 302 283 274 273 266 260 258 261 266 263 259 258 251 240 236 235 236 233 233 231 228 227 226 226 224 224 226 220 226 229 230 231 232 233 231 225 210 210 209 211 213 216 216 215 213 213 210 211 210 211 211 209 210 211 214 216
297 303 303 284 274 286 304 303 287 279 280 270 258 269 270 269 267 260 253 253 250 243 239 237 233 235 232 232 232 231 228 225 223 220 222 227 233 233 234 232 228 223 210 209 209 211 213 215 217 218 216 213 211 211 215 216 216 217 217 217 216 214
287 287 281 263 297 314 304 304 283 276 272 265 241 270 282 268 263 258 261 258 254 250 245 243 238 236 237 237 238 235 231 228 226 225 222 221 233 233 231 227 214 216 219 217 214 216 218 219 220 220 218 215 215 220 221 220 219 219 218 218 217 217
272 282 274 314 324 313 307 299 295 286 271 279 276 233 236 263 265 262 255 254 255 254 247 243 238 236 237 237 239 241 238 234 229 225 225 218 222 229 232 225 223 221 227 228 222 222 221 222 221 224 222 222 221 222 223 222 220 218 218 219 219 218
284 276 303 319 309 301 299 301 294 281 283 289 286 250 227 211 237 249 250 251 253 251 249 243 243 248 243 242 239 238 239 238 235 231 228 220 215 220 227 230 228 227 221 225 226 225 222 224 222 217 220 222 221 218 219 218 220 222 223 221 218 216
277 293 306 305 294 293 297 298 299 298 292 270 260 254 239 227 227 241 242 246 252 255 258 256 249 248 248 240 242 240 239 241 240 240 237 231 226 221 224 225 223 220 219 218 221 223 219 221 222 219 216 218 219 217 217 217 218 219 221 224 223 221
283 294 294 289 291 297 301 298 295 299 304 308 302 284 264 175 230 241 244 244 249 253 250 248 244 238 243 247 244 245 247 249 253 257 252 246 240 229 219 223 224 222 222 222 220 218 218 220 220 216 212 209 211 213 216 216 217 216 217 218 220 220
283 285 283 283 295 304 307 307 303 304 307 309 306 303 280 181 231 235 237 250 249 252 244 240 241 237 236 232 235 239 244 248 254 256 256 255 253 245 232 222 224 224 225 224 222 219 219 220 219 213 209 210 209 210 214 214 216 214 216 218 218 218
282 283 284 292 300 303 302 304 312 316 311 308 307 306 269 205 225 243 245 245 257 255 250 242 243 237 240 229 228 228 237 250 250 248 245 247 249 250 254 236 230 229 226 225 225 224 221 222 216 209 211 210 210 209 215 217 217 214 216 216 218 219
279 280 288 294 294 289 299 330 320 310 308 305 301 299 277 260 236 241 249 246 246 248 244 242 240 242 242 238 238 228 215 226 236 243 242 240 240 246 238 242 239 235 232 229 229 230 227 227 214 210 212 210 210 211 212 221 217 215 218 216 215 215
273 281 285 285 290 321 2 314 297 290 290 292 293 286 280 267 260 234 247 248 248 246 239 234 233 238 247 248 235 224 230 228 233 232 232 239 232 229 241 243 240 241 234 232 236 240 239 236 224 214 215 212 210 211 211 225 221 221 219 215 207 206
282 282 290 312 336 320 304 292 278 284 292 305 308 307 295 280 264 253 245 251 248 244 243 237 229 238 249 241 231 226 236 243 252 243 233 220 222 222 226 230 233 234 233 233 233 243 245 243 236 227 223 219 216 215 212 223 225 227 224 215 207 205
322 320 319 339 329 310 296 287 295 298 296 311 302 301 296 290 282 272 253 245 243 240 245 246 249 249 241 230 221 226 238 240 241 251 265 266 257 247 242 242 234 235 230 231 228 234 244 244 232 227 226 224 222 220 222 228 229 227 221 217 211 210
341 349 348 336 324 313 300 303 311 308 306 308 299 291 292 287 281 275 270 269 263 257 257 256 261 265 257 245 237 235 238 241 244 243 231 242 247 251 244 240 240 246 240 230 223 228 241 243 228 223 223 224 223 220 224 221 227 229 220 218 206 206
348 339 332 317 309 307 320 329 326 318 309 304 297 291 286 282 279 285 287 285 284 282 283 276 258 258 255 247 244 244 243 236 235 237 211 229 243 242 244 246 247 239 234 229 224 219 230 240 218 212 217 218 218 210 215 211 211 219 211 212 205 204
330 316 314 318 320 330 334 330 327 321 314 307 302 294 288 287 290 291 292 291 293 291 288 285 271 259 256 253 254 253 257 249 239 231 208 228 234 246 250 240 245 247 238 233 231 213 219 234 221 207 213 216 214 208 208 200 199 204 207 199 204 196
322 333 336 328 324 330 336 336 329 320 312 311 308 300 296 301 309 312 309 304 299 296 290 288 280 268 260 258 259 255 251 253 248 234 230 234 231 244 243 240 240 245 247 243 237 233 225 232 235 217 220 219 215 206 198 190 191 205 202 196 190 184
326 318 316 314 318 327 334 336 331 322 320 315 313 310 315 319 317 313 312 308 303 299 295 291 286 279 266 254 259 260 254 238 234 235 233 242 240 239 244 238 240 241 247 235 234 237 233 224 230 226 214 218 214 206 195 198 203 202 190 194 190 193
319 319 321 320 329 331 339 338 328 319 319 319 312 313 323 328 325 320 314 308 304 304 303 300 293 281 274 270 261 264 259 239 225 231 230 238 242 243 246 242 239 242 246 239 229 229 234 224 224 230 219 216 213 208 200 200 208 196 184 187 200 196
332 328 324 326 335 341 336 339 327 319 318 312 308 317 326 327 323 319 316 311 308 303 297 294 290 283 274 267 254 251 260 249 230 227 224 232 239 244 250 247 244 246 250 249 240 233 231 227 228 230 230 221 216 211 206 207 201 188 185 190 198 202
327 326 322 322 323 331 336 340 329 323 316 302 313 325 325 324 323 320 313 307 302 299 295 290 286 278 269 262 255 250 254 256 245 242 227 217 230 243 246 247 241 244 251 251 252 244 234 226 233 235 233 228 217 216 212 210 204 188 195 193 199 189
322 321 315 318 322 324 331 336 328 320 316 314 328 328 327 324 322 317 312 311 308 303 298 292 285 280 268 254 237 241 246 245 234 243 235 221 227 230 247 252 236 239 246 251 253 255 249 234 233 242 231 227 224 219 216 215 212 202 189 198 213 188
314 313 315 316 321 320 324 333 338 319 308 316 323 323 325 322 318 314 311 311 309 307 307 301 293 276 265 257 237 229 226 233 229 233 237 227 234 230 230 243 243 246 246 249 251 250 249 241 233 236 229 220 228 227 224 216 210 204 203 206 199 193
327 324 320 313 315 316 319 325 327 313 314 319 320 323 323 318 311 307 309 311 312 310 310 304 300 301 288 254 253 236 223 215 220 226 232 228 227 233 240 238 233 240 248 252 255 254 248 245 240 237 230 218 222 230 228 218 218 208 196 196 184 160
312 310 311 310 313 319 321 324 323 324 321 315 314 317 317 309 309 309 310 311 310 307 308 305 300 297 290 280 254 257 246 222 213 220 222 216 216 228 235 236 240 239 236 246 254 254 250 246 240 226 219 221 228 240 236 226 213 195 195 178 144 131
306 297 295 293 300 307 310 311 312 314 309 304 305 306 305 303 306 304 302 303 304 303 304 299 298 294 292 291 282 260 256 256 232 227 230 215 214 216 226 230 237 240 243 242 237 241 254 249 242 232 191 222 203 204 208 208 213 200 192 159 136 119
291 294 293 289 292 294 294 297 299 295 290 291 288 290 297 303 307 306 305 305 303 302 308 312 309 304 295 287 285 287 278 259 254 251 237 233 204 218 220 219 234 227 227 242 245 224 236 247 252 185 193 206 200 207 216 218 199 185 170 149 149 144
284 280 281 281 282 283 294 298 299 297 296 294 291 296 295 302 304 303 303 306 303 308 311 307 304 305 301 296 292 288 288 295 268 248 249 244 231 213 217 224 231 235 234 232 250 236 231 241 241 211 195 200 204 205 209 209 200 182 164 155 150 167
279 274 272 278 287 293 294 295 296 298 301 302 295 292 293 294 296 296 300 303 301 303 300 298 296 297 296 295 291 288 292 288 291 289 246 245 241 232 226 222 226 230 232 234 236 243 250 235 229 225 207 209 209 208 207 205 196 187 174 173 169 175
277 279 285 290 292 293 293 294 294 293 292 283 281 286 288 287 288 291 295 295 296 296 296 296 296 296 294 294 293 291 283 282 285 286 298 264 247 244 230 223 224 227 232 232 234 233 236 235 216 211 209 207 209 207 208 204 197 188 181 175 186 199
300 297 292 291 290 292 295 296 297 298 298 297 284 283 284 287 287 288 289 294 295 293 290 288 288 290 290 287 287 285 285 281 277 282 283 288 284 264 258 243 228 221 223 231 232 236 236 237 230 217 214 213 210 206 203 196 195 189 186 183 190 193
300 295 294 296 296 295 293 293 297 293 300 291 291 284 283 281 283 283 286 284 279 279 282 281 280 281 281 282 281 282 281 278 279 275 276 274 274 275 268 269 254 226 211 216 225 231 234 235 234 224 217 213 210 202 192 175 170 181 193 199 208 202
299 297 300 297 294 293 293 294 297 315 30 10 311 279 272 275 276 283 288 292 285 281 282 283 282 277 275 279 278 279 277 279 279 276 273 271 269 270 274 276 261 265 221 211 216 220 226 227 223 218 211 210 200 191 174 180 193 185 192 198 202 204